This is the latest recevied weather packets stored in our database for station/object N5YHM-13. If no packets are shown the sender has not sent any weather packets the latest 10 day(s).
| Time | Temp. | Humidity | Pressure | Rain* | Wind** | Luminosity | Snow |
|---|---|---|---|---|---|---|---|
| 1778175567 | 22.78° C | 88% | 1016.4 hPa | 0 mm | - | 32 W/m² | - |
| 1778175264 | 22.78° C | 89% | 1016.4 hPa | 0 mm | - | 32 W/m² | - |
| 1778174961 | 22.22° C | 90% | 1016.2 hPa | 0 mm | - | 29 W/m² | - |
| 1778174657 | 22.22° C | 91% | 1016.4 hPa | 0 mm | - | 30 W/m² | - |
| 1778174353 | 21.67° C | 90% | 1016.5 hPa | 0 mm | - | 30 W/m² | - |
| 1778174050 | 21.67° C | 91% | 1016.5 hPa | 0 mm | - | 36 W/m² | - |
| 1778173747 | 21.67° C | 91% | 1016.7 hPa | 0 mm | - | 34 W/m² | - |
| 1778173443 | 21.11° C | 92% | 1016.5 hPa | 0 mm | - | 32 W/m² | - |
| 1778173140 | 21.11° C | 92% | 1016.8 hPa | 0 mm | - | 31 W/m² | - |
| 1778172836 | 21.11° C | 92% | 1016.5 hPa | 0 mm | - | 31 W/m² | - |
| 1778172532 | 21.11° C | 93% | 1016.9 hPa | 0 mm | - | 27 W/m² | - |
| 1778172229 | 21.11° C | 93% | 1016.8 hPa | 0 mm | - | 28 W/m² | - |
| 1778171926 | 20.56° C | 93% | 1016.9 hPa | 0 mm | - | 24 W/m² | - |
| 1778171623 | 20.56° C | 94% | 1016.9 hPa | 0 mm | - | 24 W/m² | - |
| 1778171320 | 21.11° C | 94% | 1017.2 hPa | 0 mm | - | 21 W/m² | - |
| 1778171015 | 20.56° C | 94% | 1017.2 hPa | 0 mm | - | 18 W/m² | - |
| 1778170713 | 20.56° C | 93% | 1017.1 hPa | 0 mm | - | 22 W/m² | - |
| 1778170409 | 20.56° C | 95% | 1017 hPa | 0 mm | - | 29 W/m² | - |
| 1778170106 | 20.56° C | 95% | 1017.1 hPa | 0 mm | - | 26 W/m² | - |
| 1778169801 | 20.56° C | 95% | 1017 hPa | 0 mm | - | 24 W/m² | - |
| 1778169498 | 20.56° C | 95% | 1016.9 hPa | 0 mm | - | 19 W/m² | - |
| 1778169194 | 20.56° C | 95% | 1016.8 hPa | 0 mm | - | 26 W/m² | - |
| 1778168891 | 20° C | 97% | 1016.6 hPa | 0 mm | - | 26 W/m² | - |
| 1778168588 | 19.44° C | 98% | 1016.5 hPa | 0 mm | - | 27 W/m² | - |
| 1778168285 | 19.44° C | 99% | 1016.8 hPa | 0 mm | - | 22 W/m² | - |
* Rain latest hour (hover to see other rain measurements)
** Current wind speed in m/s (hover to see current wind gust speed)